Вернуться в каталог

THOR ABLESTAR DEB

АктивенLEO
NORAD 210·DEBRIS·🇺🇸 United States

Запущен Jun 29, 1961 с Cape Canaveral Space Force Station

Loading…

Ближайшие Пролёты (ближайшие 24 часа)

TLE

СвежийSource: Space-Track

Эпоха: Sep 14, 2026, 09:50 UTC

1 00210U 61015BE  26257.40980039  .00000342  00000-0  34226-3 0  9990
2 00210  66.4565 145.2884 0053193 258.7633 100.7461 13.89160462277795

Отслеживайте THOR ABLESTAR DEB в реальном времени с AllMySat

Download on the App Store